Location: Newark
(17.9939°S, 31.0481°E)
Time: 13:16:21
(UTC+00:00)

S-56A Canister/Altair - All Passes

Search period start: 14 November 2019 00:00
Search period end: 24 November 2019 00:00
Orbit: 634 x 2498 km, 38.9° (Epoch: 13 November)

Date Brightness Start Highest point End Pass type
(mag) Time Alt. Az. Time Alt. Az. Time Alt. Az.
14 Nov - 01:09:45 10° NNW 01:15:40 34° NE 01:24:08 10° ESE visible
14 Nov - 03:12:07 10° WNW 03:20:04 63° SSW 03:32:14 10° SE daylight
14 Nov - 05:18:36 10° WSW 05:27:58 32° S 05:40:10 10° SE daylight
14 Nov - 07:26:32 10° SW 07:38:07 32° S 07:50:55 10° ESE daylight
14 Nov - 09:33:17 10° SW 09:47:50 53° SSE 10:01:16 10° ENE daylight
14 Nov - 11:40:09 10° WSW 11:55:16 72° NW 12:07:07 10° NE daylight
14 Nov - 13:51:25 10° W 14:00:01 20° NW 14:07:10 10° N daylight
15 Nov - 00:37:53 10° N 00:43:03 26° NE 00:50:04 10° ESE visible
15 Nov - 02:39:32 10° WNW 02:46:56 70° SSW 02:58:28 10° SE visible
15 Nov - 04:45:30 10° WSW 04:54:18 33° SSW 05:06:07 10° SE daylight
15 Nov - 06:53:15 10° SW 07:04:08 30° S 07:16:42 10° ESE daylight
15 Nov - 08:59:52 10° SW 09:13:58 49° SSE 09:27:41 10° E daylight
15 Nov - 11:06:24 10° SW 11:21:44 80° NW 11:34:17 10° NE daylight
15 Nov - 13:16:29 10° W 13:26:55 25° NW 13:35:27 10° N daylight
16 Nov - 00:06:15 10° N 00:10:30 19° NE 00:15:52 10° E visible
16 Nov - 02:07:01 10° WNW 02:13:55 79° SW 02:24:44 10° SE visible
16 Nov - 04:12:30 10° WSW 04:20:44 34° SSW 04:32:07 10° SE daylight
16 Nov - 06:20:02 10° SW 06:30:13 29° S 06:42:24 10° ESE daylight
16 Nov - 08:26:33 10° SW 08:40:03 45° SSE 08:53:55 10° E daylight
16 Nov - 10:32:46 10° SW 10:48:08 88° NW 11:01:20 10° NE daylight
16 Nov - 12:41:54 10° WSW 12:53:44 30° NW 13:03:27 10° N daylight
16 Nov - 23:35:04 10° NNE 23:37:57 14° NE 23:41:18 10° E visible
17 Nov - 01:34:35 10° NW 01:41:00 90° SSW 01:51:03 10° SE visible
17 Nov - 03:39:35 10° W 03:47:17 35° SSW 03:58:11 10° SE daylight
17 Nov - 05:46:54 10° SW 05:56:22 28° S 06:08:03 10° ESE daylight
17 Nov - 07:53:18 10° SW 08:06:09 42° SSE 08:20:00 10° E daylight
17 Nov - 09:59:13 10° SW 10:14:27 85° SE 10:28:13 10° NE daylight
17 Nov - 12:07:33 10° WSW 12:20:28 36° NW 12:31:12 10° NNE daylight
18 Nov - 01:02:14 10° NW 01:08:12 77° NE 01:17:26 10° SE visible
18 Nov - 03:06:46 10° W 03:13:57 36° SSW 03:24:20 10° SE daylight
18 Nov - 05:13:51 10° SW 05:22:35 27° S 05:33:41 10° SE daylight
18 Nov - 07:20:09 10° SW 07:32:15 39° SSE 07:45:55 10° E daylight
18 Nov - 09:25:47 10° SW 09:40:42 78° SE 09:54:58 10° ENE daylight
18 Nov - 11:33:26 10° WSW 11:47:07 42° NW 11:58:46 10° NNE daylight
19 Nov - 00:29:57 10° NW 00:35:30 63° NE 00:43:50 10° ESE visible
19 Nov - 02:34:00 10° W 02:40:43 38° SSW 02:50:34 10° SE visible
19 Nov - 04:40:51 10° SW 04:48:55 26° S 04:59:21 10° SE daylight
19 Nov - 06:47:05 10° SW 06:58:24 36° SSE 07:11:42 10° E daylight
19 Nov - 08:52:28 10° SW 09:06:57 71° SE 09:21:33 10° ENE daylight
19 Nov - 10:59:28 10° WSW 11:13:41 49° NW 11:26:10 10° NNE daylight
19 Nov - 13:17:20 10° WNW 13:18:54 10° NW 13:20:27 10° NW daylight
19 Nov - 23:57:46 10° NNW 00:02:53 49° NE 00:10:16 10° ESE visible
20 Nov - 02:01:18 10° W 02:07:35 40° SSW 02:16:53 10° SE visible
20 Nov - 04:07:56 10° SW 04:15:19 25° S 04:25:03 10° SE daylight
20 Nov - 06:14:07 10° SW 06:24:35 33° SSE 06:37:20 10° ESE daylight
20 Nov - 08:19:15 10° SW 08:33:10 65° SSE 08:47:58 10° ENE daylight
20 Nov - 10:25:41 10° WSW 10:40:10 55° NW 10:53:24 10° NNE daylight
20 Nov - 12:39:15 10° WNW 12:45:39 14° NW 12:51:34 10° NNW daylight
20 Nov - 23:25:40 10° NNW 23:30:21 38° NE 23:36:44 10° ESE visible
21 Nov - 01:28:40 10° W 01:34:33 44° SSW 01:43:18 10° SE visible
21 Nov - 03:35:03 10° SW 03:41:50 24° S 03:50:51 10° SE daylight
21 Nov - 05:41:12 10° SW 05:50:50 30° SSE 06:02:53 10° ESE daylight
21 Nov - 07:46:08 10° SW 07:59:23 59° SSE 08:14:15 10° ENE daylight
21 Nov - 09:52:04 10° WSW 10:06:34 63° NW 10:20:29 10° NE daylight
21 Nov - 12:03:36 10° W 12:12:20 18° NW 12:20:22 10° NNW daylight
21 Nov - 22:53:41 10° NNW 22:57:51 28° NE 23:03:11 10° ESE visible
22 Nov - 00:56:05 10° WNW 01:01:38 48° SSW 01:09:50 10° SE visible
22 Nov - 03:02:13 10° WSW 03:08:27 23° S 03:16:45 10° SE daylight
22 Nov - 05:08:23 10° SW 05:17:09 28° SSE 05:28:20 10° ESE daylight
22 Nov - 07:13:06 10° SW 07:25:38 54° SSE 07:40:21 10° ENE daylight
22 Nov - 09:18:35 10° WSW 09:32:57 70° NW 09:47:24 10° NE daylight
22 Nov - 11:28:38 10° W 11:38:58 22° NW 11:48:33 10° N daylight
22 Nov - 22:21:50 10° N 22:25:22 21° NE 22:29:34 10° E visible
23 Nov - 00:23:33 10° WNW 00:28:47 55° SSW 00:36:28 10° SE visible
23 Nov - 02:29:25 10° WSW 02:35:09 23° S 02:42:48 10° SE visible
23 Nov - 04:35:37 10° SW 04:43:33 25° SSE 04:53:46 10° ESE daylight
23 Nov - 06:40:11 10° SW 06:51:56 49° SSE 07:06:18 10° E daylight
23 Nov - 08:45:14 10° WSW 08:59:17 77° NW 09:14:11 10° NE daylight
23 Nov - 10:54:07 10° W 11:05:33 27° NW 11:16:22 10° N daylight
23 Nov - 21:50:17 10° NNE 21:52:53 15° NE 21:55:45 10° E night (unlit)
